This is the latest recevied weather packets stored in our database for station/object HS1AXC-1. If no packets are shown the sender has not sent any weather packets the latest 10 day(s).
| Time | Temp. | Humidity | Pressure | Rain* | Wind** | Luminosity | Snow |
|---|---|---|---|---|---|---|---|
| 1777542678 | 37.78° C | 54% | 1006 hPa | - | - | 0 W/m² | - |
| 1777542056 | 37.78° C | 54% | 1006 hPa | - | - | 1 W/m² | - |
| 1777541228 | 38.33° C | 53% | 1006 hPa | - | - | 1 W/m² | - |
| 1777540606 | 37.78° C | 53% | 1006 hPa | - | - | 1 W/m² | - |
| 1777539984 | 37.22° C | 53% | 1006 hPa | - | - | 1 W/m² | - |
| 1777539362 | 38.33° C | 53% | 1006 hPa | - | - | 1 W/m² | - |
| 1777538739 | 37.22° C | 54% | 1007 hPa | - | - | 1 W/m² | - |
| 1777538117 | 37.78° C | 53% | 1006 hPa | - | - | 1 W/m² | - |
| 1777537495 | 37.78° C | 54% | 1007 hPa | - | - | 1 W/m² | - |
| 1777536873 | 37.22° C | 55% | 1007 hPa | - | - | 1 W/m² | - |
| 1777536250 | 37.78° C | 54% | 1007 hPa | - | - | 1 W/m² | - |
| 1777535629 | 37.78° C | 54% | 1007 hPa | - | - | 2 W/m² | - |
| 1777535006 | 37.78° C | 54% | 1008 hPa | - | - | 1 W/m² | - |
| 1777534384 | 37.78° C | 55% | 1008 hPa | - | - | 1 W/m² | - |
| 1777533761 | 38.33° C | 56% | 1008 hPa | - | - | 1 W/m² | - |
| 1777533139 | 37.78° C | 56% | 1008 hPa | - | - | 2 W/m² | - |
| 1777532517 | 37.78° C | 56% | 1009 hPa | - | - | 3 W/m² | - |
| 1777531893 | 37.78° C | 59% | 1009 hPa | - | - | 3 W/m² | - |
| 1777531270 | 36.67° C | 61% | 1009 hPa | - | - | 3 W/m² | - |
| 1777530648 | 36.11° C | 66% | 1009 hPa | - | - | 1 W/m² | - |
| 1777530026 | 35.56° C | 67% | 1009 hPa | - | - | 1 W/m² | - |
| 1777529403 | 36.11° C | 60% | 1010 hPa | - | - | 1 W/m² | - |
| 1777528781 | 36.11° C | 63% | 1010 hPa | - | - | 1 W/m² | - |
| 1777528159 | 35.56° C | 67% | 1010 hPa | - | - | 0 W/m² | - |
| 1777527537 | 35.56° C | 67% | 1010 hPa | - | - | 0 W/m² | - |
* Rain since midnight (hover to see other rain measurements)
** Current wind speed in m/s (hover to see current wind gust speed)